Regional Weather Roundup
Issued by NWS

Home | Current Version | Previous Version | Graphics & Text | Print | Product List | Glossary On
Versions: 1 2 3 4 5 6 7 8 9 10 11 12 13 14 15 16 17 18 19 20 21 22 23 24 25 26 27 28 29 30 31 32 33 34 35 36 37 38 39 40 41 42 43 44 45 46 47 48 49 50
000
ASUS43 KLOT 280312
RWRIL

ILLINOIS REGIONAL WEATHER ROUNDUP
NATIONAL WEATHER SERVICE CHICAGO/ROMEOVILLE IL
1000 PM CDT TUE SEP 27 2016

NOTE: "FAIR" INDICATES FEW OR NO CLOUDS BELOW 12,000 FEET WITH NO
SIGNIFICANT WEATHER AND/OR OBSTRUCTIONS TO VISIBILITY.

* THESE STATIONS ARE NOT UNDER NWS QUALITY CONTROL. THEY ALSO MAY NOT
  REPORT WEATHER SUCH AS PRECIPITATION OR FOG.

ILZ001-002-007-009-015-016-024-280400-
NORTHWEST ILLINOIS

CITY           SKY/WX    TMP DP  RH WIND       PRES   REMARKS
MOLINE         CLOUDY    61  46  57 N3        29.77S
STERLING*      PTCLDY    56  43  61 CALM      29.77F
SAVANNA*       CLOUDY    55  48  77 CALM      29.77S
$$

ILZ003-004-008-010-011-017-018-280400-
NORTH CENTRAL ILLINOIS

CITY           SKY/WX    TMP DP  RH WIND       PRES   REMARKS
ROCKFORD       CLOUDY    56  46  69 NE14      29.82R
FREEPORT*      CLOUDY    53  46  78 NE5       29.81R
ROCHELLE*      PTCLDY    51  44  77 CALM      29.78S
DE KALB*       MOCLDY    54  46  72 NE9       29.79R
$$

ILZ005-006-012>014-019>023-280400-
NORTHEAST ILLINOIS

CITY           SKY/WX    TMP DP  RH WIND       PRES   REMARKS
CHICAGO-OHARE  CLOUDY    57  46  66 N14       29.79R
CHICAGO-MIDWAY MOCLDY    64  35  34 N9        29.78R
AURORA         CLOUDY    53  45  74 CALM      29.77F
LANSING*       PTCLDY    51  45  79 S3        29.78S
JOLIET*        PTCLDY    53  46  77 CALM      29.78S
WAUKEGAN       CLOUDY    54  45  71 N5        29.78F
DUPAGE AIRPORT CLOUDY    55  40  56 N7        29.77S
KANKAKEE*      PTCLDY    51  41  69 CALM      29.79F
WHEELING       CLOUDY    55  46  71 NE9       29.80R
MORRIS*        CLOUDY    54  42  63 CALM      29.76F
ROMEOVILLE*    CLOUDY    53  45  73 SW3       29.78S
NORTHERLY ISL    N/A     61  50  67 N12         N/A
$$

LMZ740>746-280400-
SOUTHERN LAKE MICHIGAN

STATION/POSITION SKY/WX   TEMP    WIND        PRES    VSBY  WAVE
                          AIR SEA DIR/SP/G                  HT/PER
                          (F)     (DEG/KT/KT) (MB)    (MI)  (FT/S)
SOUTHERN BUOY              58 70  330/ 10/ 16 1008.1R         3/ 5
WILMETTE HARBOR            57 59   40/ 14/ 17   N/A           3/ 2
HARRISON CRIB              63      20/ 14/ 15   N/A
BURNHAM HARBOR             61      20/ 10       N/A
CALUMET HARBOR             62     220/  2/  4 1007.8F
BURNS HARBOR               65     210/  5/  6 1008.8S
MICHIGAN CITY              66     260/ 13/ 15   N/A
MICHIGAN CITY 6N           64 67   60/ 12/ 16   N/A           3/ 5
ST. JOSEPH                 60 67   80/  8/ 12 1008.8          3/ 5
$$

ILZ025>027-034>036-040-047-049-050-058-095>099-280400-
WEST-CENTRAL ILLINOIS

CITY           SKY/WX    TMP DP  RH WIND       PRES   REMARKS
QUINCY         PTCLDY    60  50  69 SW6       29.82F
GALESBURG*       N/A    N/A N/A N/A MISG        N/A
MACOMB*        CLOUDY    58  45  61 SW7       29.82F
JACKSONVILLE*  PTCLDY    60  49  66 SW6       29.82F
PITTSFIELD*    MOCLDY    62  52  70 CALM      29.84S
$$

ILZ028>032-037-038-041>044-048-051>054-059>061-280400-
CENTRAL ILLINOIS

CITY           SKY/WX    TMP DP  RH WIND       PRES   REMARKS
PONTIAC        PTCLDY    55  43  64 SW3       29.79F
BLOOMINGTON    CLOUDY    58  43  57 SW6       29.81F
DECATUR        PTCLDY    60  46  59 SW6       29.82S
PEORIA         MOCLDY    61  44  53 SW3       29.79F
LACON*         CLOUDY    57  42  57 CALM      29.77F
LINCOLN*       CLOUDY    67  45  45 CALM      29.80F
SPRINGFIELD    MOCLDY    58  49  72 SW3       29.82S
TAYLORVILLE    CLEAR     57  49  76 CALM      29.83S
$$

ILZ033-039-045-046-055>057-062-063-280400-
EAST-CENTRAL ILLINOIS

CITY           SKY/WX    TMP DP  RH WIND       PRES   REMARKS
CHAMPAIGN      PTCLDY    56  43  61 SW5       29.82S
RANTOUL*       PTCLDY    56  46  67 SW3       29.81S
MATTOON        MOCLDY    63  49  60 CALM      29.82S
PARIS*         PTCLDY    53  49  86 CALM      29.83S
$$

ILZ079-100>102-280400-
SOUTHWEST ILLINOIS

CITY           SKY/WX    TMP DP  RH WIND       PRES   REMARKS
BELLEVILLE     CLEAR     64  53  69 SW6       29.84S
CAHOKIA*       CLEAR     67  52  58 CALM      29.85S
SPARTA*        CLEAR     64  53  66 SW7       29.88S
$$

ILZ064>066-069>071-074>076-080>082-084>086-088>090-092>094-280400-
SOUTH-CENTRAL ILLINOIS

CITY           SKY/WX    TMP DP  RH WIND       PRES   REMARKS
CARBONDALE     CLEAR     58  54  86 SW6       29.88S
CAIRO*         CLEAR     67  51  57 SW8       29.90F
EFFINGHAM*     MOCLDY    62  54  73 S5        29.85S
MARION         CLEAR     61  54  77 S6        29.89S
MT. VERNON     CLEAR     55  50  82 CALM      29.87S
CENTRALIA*     CLEAR     64  55  72 SW7       29.85S
SALEM*         CLEAR     62  53  71 S6        29.85S
METROPOLIS*    CLEAR     65  52  62 CALM      29.91S
$$

ILZ067-068-072-073-078-083-087-091-280400-
SOUTHEAST ILLINOIS

CITY           SKY/WX    TMP DP  RH WIND       PRES   REMARKS
LAWRENCEVILLE  PTCLDY    59  50  72 S7        29.85F
FLORA*         CLEAR     59  53  80 SW6       29.86S
FAIRFIELD*     CLEAR     60  53  78 CALM      29.86S
HARRISBURG*    CLEAR     59  55  85 CALM      29.89S
ROBINSON*      PTCLDY    56  50  80 S6        29.85S
CARMI*         CLEAR     59  53  80 SW5       29.87S
$$

ABBREVIATIONS USED IN REMARKS
   TC - TEMPERATURE IN CELSIUS
  WCI - WIND CHILL INDEX
   HX - HEAT INDEX
  VSB - VISIBILITY
$$





USA.gov is the U.S. government's official web portal to all federal, state and local government web resources and services.